CW7364 Weather Reports


Display with metric or nautical units.
time (UTC)temp
F
wind
direction
speed
MPH
gust
MPH
rain 1hr
in
rain 24hr
in
rain mn
in
humidity
%
barometer
mb
20260508173015 73 135 6.0 11.0 0.00 0.05 0.05 72 1011.1
20260508172036 73 180 4.0 9.0 0.00 0.05 0.05 73 1011.2
20260508171016 72 180 5.0 9.0 0.00 0.05 0.05 73 1011.5
20260508170016 72 203 5.0 11.0 0.00 0.05 0.05 73 1011.6
20260508165015 71 135 6.0 11.0 0.00 0.05 0.05 73 1011.7
20260508164136 70 158 5.0 9.0 0.00 0.05 0.05 73 1012.0
20260508163016 70 180 6.0 11.0 0.00 0.05 0.05 72 1012.2
20260508162016 70 180 5.0 11.0 0.00 0.05 0.05 72 1012.1
20260508161015 70 180 5.0 9.0 0.00 0.05 0.05 73 1012.2
20260508160015 70 180 6.0 11.0 0.00 0.05 0.05 73 1012.3
20260508155015 69 180 6.0 11.0 0.00 0.05 0.05 72 1012.5
20260508154015 69 180 4.0 8.0 0.00 0.05 0.05 75 1012.7
20260508153036 68 203 5.0 8.0 0.00 0.05 0.05 75 1012.9
20260508152015 67 180 7.0 12.0 0.00 0.05 0.05 74 1013.1
20260508151015 67 180 5.0 9.0 0.00 0.05 0.05 77 1013.1
20260508150035 67 158 4.0 9.0 0.00 0.05 0.05 78 1013.3
20260508145015 66 180 5.0 10.0 0.00 0.05 0.05 79 1013.4
20260508144017 65 180 7.0 10.0 0.00 0.05 0.05 80 1013.1
20260508143017 65 203 6.0 10.0 0.00 0.05 0.05 82 1013.3
20260508142017 64 180 4.0 7.0 0.00 0.05 0.05 85 1013.2
20260508141017 63 180 4.0 8.0 0.00 0.05 0.05 87 1013.5
20260508140017 63 180 3.0 8.0 0.00 0.05 0.05 90 1013.6
20260508135017 62 135 2.0 5.0 0.00 0.05 0.05 90 1013.7
20260508134017 62 135 3.0 7.0 0.00 0.05 0.05 90 1013.6
20260508133017 61 135 4.0 7.0 0.00 0.05 0.05 90 1013.6
20260508132017 61 135 3.0 5.0 0.00 0.05 0.05 91 1013.7
20260508131017 61 113 2.0 3.0 0.01 0.05 0.05 91 1013.7
20260508130037 60 113 2.0 3.0 0.02 0.05 0.05 91 1013.6
20260508125017 60 135 1.0 3.0 0.02 0.05 0.05 91 1013.8
20260508124037 60 0.0 1.0 0.02 0.05 0.05 90 1013.8
20260508123017 59 180 2.0 4.0 0.03 0.05 0.05 90 1013.3
20260508122017 59 135 1.0 3.0 0.04 0.05 0.05 90 1013.3
20260508121016 59 135 1.0 4.0 0.03 0.04 0.04 90 1013.4
20260508120017 59 158 3.0 5.0 0.02 0.03 0.03 89 1013.2
20260508115517 59 180 2.0 3.0 0.02 0.03 0.03 89 1013.5
20260508114517 59 180 2.0 4.0 0.02 0.03 0.03 89 1013.4
20260508113516 59 158 3.0 6.0 0.02 0.03 0.03 88 1013.4
20260508112516 59 203 4.0 8.0 0.00 0.01 0.01 88 1013.4
20260508111557 59 180 3.0 5.0 0.01 0.01 0.01 88 1013.5
20260508110516 59 158 2.0 4.0 0.01 0.01 0.01 88 1013.4
20260508105517 59 180 1.0 2.0 0.01 0.01 0.01 88 1013.8
20260508104516 59 0.0 2.0 0.01 0.01 0.01 88 1013.3
20260508103516 59 158 2.0 3.0 0.01 0.01 0.01 87 1013.1
20260508102516 59 158 2.0 4.0 0.01 0.01 0.01 87 1013.0
20260508101516 59 180 2.0 4.0 0.00 0.00 0.00 87 1013.3
20260508100516 59 158 3.0 5.0 0.00 0.00 0.00 86 1012.8
20260508095536 59 158 2.0 4.0 0.00 0.00 0.00 86 1013.1
20260508094516 59 158 1.0 2.0 0.00 0.00 0.00 86 1013.5
20260508093516 59 0.0 1.0 0.00 0.00 0.00 85 1013.5
20260508092516 59 0.0 1.0 0.00 0.00 0.00 85 1013.2
20260508091536 59 0.0 0.0 0.00 0.00 0.00 85 1013.4
20260508090516 59 0.0 0.0 0.00 0.00 0.00 84 1013.3
20260508085516 59 0.0 0.0 0.00 0.00 0.00 84 1013.3
20260508084536 59 158 1.0 5.0 0.00 0.00 0.00 84 1013.2
20260508083516 59 158 3.0 7.0 0.00 0.00 0.00 84 1013.3
20260508082516 59 158 2.0 5.0 0.00 0.00 0.00 84 1013.3
20260508081516 59 158 1.0 3.0 0.00 0.00 0.00 85 1013.4
20260508080516 58 135 1.0 2.0 0.00 0.00 0.00 85 1013.5
20260508075516 58 135 2.0 3.0 0.00 0.00 0.00 85 1013.6
20260508074516 58 158 2.0 5.0 0.00 0.00 0.00 85 1013.8
20260508073516 58 158 2.0 3.0 0.00 0.00 0.00 86 1014.1
20260508072516 58 158 1.0 2.0 0.00 0.00 0.00 86 1014.4
20260508071515 57 158 1.0 4.0 0.00 0.00 0.00 87 1014.3
20260508070515 56 0.0 0.0 0.00 0.00 0.00 86 1014.8
20260508065516 56 0.0 1.0 0.00 0.00 0.00 87 1014.7
20260508064536 56 0.0 0.0 0.00 0.00 0.00 86 1014.6
20260508063536 56 0.0 0.0 0.00 0.00 0.00 86 1014.8
20260508062516 56 135 1.0 2.0 0.00 0.00 0.00 86 1014.8
20260508061515 56 0.0 0.0 0.00 0.00 0.00 85 1014.7
20260508060516 56 0.0 0.0 0.00 0.00 0.00 85 1014.8
20260508055515 56 0.0 0.0 0.00 0.00 0.00 83 1014.8
20260508054515 56 0.0 0.0 0.00 0.00 0.00 83 1014.9
20260508053515 57 0.0 0.0 0.00 0.00 0.00 83 1014.8
20260508052515 57 0.0 0.0 0.00 0.00 0.00 81 1014.8
20260508051535 58 0.0 0.0 0.00 0.00 0.00 81 1014.6
20260508050515 59 0.0 1.0 0.00 0.00 0.00 81 1014.7
20260508045516 58 0.0 0.0 0.00 0.00 0.00 81 1014.8
20260508044516 58 0.0 1.0 0.00 0.00 0.00 81 1014.9
20260508043516 58 0.0 0.0 0.00 0.00 0.00 80 1014.9
20260508042516 58 0.0 0.0 0.00 0.00 0.00 80 1014.9
20260508041516 59 0.0 0.0 0.00 0.00 0.00 80 1014.9
20260508040516 58 0.0 0.0 0.00 0.00 0.00 80 1014.9
20260508035516 59 135 1.0 3.0 0.00 0.00 0.00 80 1014.8
20260508034536 59 0.0 0.0 0.00 0.00 0.00 79 1014.8
20260508033516 60 0.0 0.0 0.00 0.00 0.00 77 1014.5
20260508032516 60 0.0 2.0 0.00 0.00 0.00 77 1014.6
20260508031516 60 0.0 0.0 0.00 0.00 0.00 76 1014.5
20260508030516 60 0.0 0.0 0.00 0.00 0.00 75 1014.4
20260508025535 61 0.0 0.0 0.00 0.00 0.00 74 1014.3
20260508024515 62 0.0 0.0 0.00 0.00 0.00 74 1014.0
20260508023516 62 0.0 0.0 0.00 0.00 0.00 72 1013.8
20260508022515 62 0.0 0.0 0.00 0.00 0.00 72 1013.9
20260508021535 62 0.0 0.0 0.00 0.00 0.00 72 1013.7
20260508020515 63 0.0 0.0 0.00 0.00 0.00 71 1013.6
20260508015515 64 0.0 0.0 0.00 0.00 0.00 69 1013.5
20260508014515 64 0.0 0.0 0.00 0.00 0.00 68 1013.4
20260508013515 65 0.0 0.0 0.00 0.00 0.00 67 1013.4
20260508012535 65 0.0 0.0 0.00 0.00 0.00 67 1013.3
20260508011517 66 0.0 0.0 0.00 0.00 0.00 67 1013.3
20260508010537 67 0.0 1.0 0.00 0.00 0.00 66 1013.3
20260508005517 67 0.0 1.0 0.00 0.00 0.00 65 1013.2
20260508004517 68 0.0 1.0 0.00 0.00 0.00 64 1013.2
20260508003517 68 135 1.0 3.0 0.00 0.00 0.00 62 1013.2
20260508002517 69 135 2.0 4.0 0.00 0.00 0.00 62 1013.3
20260508001517 69 158 2.0 4.0 0.00 0.00 0.00 60 1013.5
20260508000517 69 158 2.0 5.0 0.00 0.00 0.00 60 1013.5
20260507235517 70 180 2.0 5.0 0.00 0.00 0.00 59 1013.6
20260507234517 71 135 4.0 10.0 0.00 0.00 0.00 58 1013.4
20260507233517 71 135 4.0 10.0 0.00 0.00 0.00 57 1013.6
20260507232537 72 135 5.0 9.0 0.00 0.00 0.00 54 1013.7
20260507231517 72 135 4.0 7.0 0.00 0.00 0.00 55 1013.6
20260507230517 73 180 3.0 9.0 0.00 0.00 0.00 53 1013.8
20260507225517 73 158 4.0 8.0 0.00 0.00 0.00 54 1013.8
20260507224517 74 135 5.0 8.0 0.00 0.00 0.00 53 1013.9
20260507223557 74 180 3.0 6.0 0.00 0.00 0.00 53 1014.1
20260507222516 73 158 3.0 5.0 0.00 0.00 0.00 54 1014.1
20260507221517 74 180 5.0 8.0 0.00 0.00 0.00 51 1014.2
20260507220517 74 158 4.0 11.0 0.00 0.00 0.00 52 1014.3
20260507215516 74 90 4.0 9.0 0.00 0.00 0.00 52 1014.4
20260507214516 74 113 4.0 8.0 0.00 0.00 0.00 51 1014.4
20260507213517 75 45 3.0 7.0 0.00 0.00 0.00 49 1014.6
20260507212516 75 0 1.0 4.0 0.00 0.00 0.00 50 1014.7
20260507211517 75 68 2.0 7.0 0.00 0.00 0.00 51 1014.8
20260507210516 74 135 3.0 8.0 0.00 0.00 0.00 51 1014.9
20260507205516 74 23 2.0 5.0 0.00 0.00 0.00 50 1014.9
20260507204536 73 68 4.0 8.0 0.00 0.00 0.00 51 1015.0
20260507203516 74 270 1.0 5.0 0.00 0.00 0.00 51 1015.1
20260507202516 73 23 4.0 7.0 0.00 0.00 0.00 51 1015.1
20260507201516 73 45 4.0 9.0 0.00 0.00 0.00 50 1015.4
20260507200536 73 45 3.0 9.0 0.00 0.00 0.00 51 1015.6
20260507195536 73 68 2.0 6.0 0.00 0.00 0.00 52 1015.8
20260507194516 73 23 2.0 7.0 0.00 0.00 0.00 51 1015.8
20260507193516 72 90 4.0 7.0 0.00 0.00 0.00 50 1016.0
20260507192516 72 90 4.0 8.0 0.00 0.00 0.00 51 1016.1
20260507191516 71 90 2.0 7.0 0.00 0.00 0.00 53 1016.3
20260507190516 71 68 4.0 9.0 0.00 0.00 0.00 54 1016.4
20260507185516 70 68 5.0 11.0 0.00 0.00 0.00 54 1016.4
20260507184516 70 68 4.0 10.0 0.00 0.00 0.00 55 1016.5
20260507183536 70 45 5.0 12.0 0.00 0.00 0.00 56 1016.7
20260507182516 69 23 3.0 8.0 0.00 0.00 0.00 54 1016.8
20260507181516 68 45 5.0 13.0 0.00 0.00 0.00 55 1017.0
20260507180516 68 68 4.0 9.0 0.00 0.00 0.00 55 1017.4
20260507175517 68 90 5.0 9.0 0.00 0.00 0.00 57 1017.7
20260507174515 67 45 4.0 6.0 0.00 0.00 0.00 56 1017.9